TimeCEST,TemperatureF,Dew PointF,Humidity,Sea Level PressureIn,VisibilityMPH,Wind Direction,Wind SpeedMPH,Gust SpeedMPH,PrecipitationIn,Events,Conditions,WindDirDegrees,DateUTC
12:00 AM,53.6,48.2,82,29.65,6.2,ENE,11.5,-,N/A,,Partly Cloudy,70,2013-04-01 22:00:00
12:30 AM,53.6,46.4,77,29.65,6.2,ENE,11.5,-,N/A,,Partly Cloudy,70,2013-04-01 22:30:00
1:00 AM,51.8,46.4,82,29.65,6.2,ENE,8.1,-,N/A,,Partly Cloudy,60,2013-04-01 23:00:00
1:30 AM,51.8,46.4,82,29.65,6.2,Calm,Calm,-,N/A,,Partly Cloudy,0,2013-04-01 23:30:00
2:00 AM,49,43,72,29.68,9,Calm,Calm,,,,Scattered Clouds,,2013-04-02 00:00:00
2:00 AM,50.0,46.4,87,29.65,6.2,Calm,Calm,-,N/A,,Partly Cloudy,0,2013-04-02 00:00:00
2:30 AM,50.0,46.4,87,29.65,6.2,ENE,3.5,-,N/A,,Partly Cloudy,70,2013-04-02 00:30:00
3:00 AM,48.2,44.6,87,29.65,6.2,Calm,Calm,-,N/A,,Partly Cloudy,0,2013-04-02 01:00:00
3:30 AM,48.2,44.6,87,29.65,6.2,NE,1.2,-,N/A,,Partly Cloudy,40,2013-04-02 01:30:00
4:00 AM,46.4,42.8,87,29.65,6.2,Calm,Calm,-,N/A,,Partly Cloudy,0,2013-04-02 02:00:00
4:30 AM,46.4,44.6,93,29.65,6.2,Calm,Calm,-,N/A,,Partly Cloudy,0,2013-04-02 02:30:00
5:00 AM,44.6,42.8,93,29.65,6.2,ENE,1.2,-,N/A,,Partly Cloudy,60,2013-04-02 03:00:00
5:30 AM,44.6,42.8,93,29.65,6.2,Variable,2.3,-,N/A,,Partly Cloudy,0,2013-04-02 03:30:00
6:00 AM,46.4,42.8,87,29.65,6.2,Variable,1.2,-,N/A,,Partly Cloudy,0,2013-04-02 04:00:00
6:30 AM,44.6,42.8,93,29.65,6.2,Variable,1.2,-,N/A,,Partly Cloudy,0,2013-04-02 04:30:00
7:00 AM,44.6,42.8,93,29.65,6.2,Calm,Calm,-,N/A,,Partly Cloudy,0,2013-04-02 05:00:00
7:30 AM,44.6,42.8,93,29.68,6.2,Calm,Calm,-,N/A,,Partly Cloudy,0,2013-04-02 05:30:00
8:00 AM,42,40,88,29.69,14,Calm,Calm,,,,Scattered Clouds,,2013-04-02 06:00:00
8:00 AM,42.8,42.8,100,29.68,6.2,Calm,Calm,-,N/A,,Partly Cloudy,0,2013-04-02 06:00:00
8:30 AM,46.4,44.6,93,29.68,6.2,Calm,Calm,-,N/A,,Partly Cloudy,0,2013-04-02 06:30:00
9:00 AM,50.0,48.2,94,29.68,6.2,Calm,Calm,-,N/A,,Partly Cloudy,0,2013-04-02 07:00:00
9:30 AM,53.6,50.0,88,29.68,6.2,Calm,Calm,-,N/A,,Partly Cloudy,0,2013-04-02 07:30:00
10:00 AM,57.2,51.8,82,29.71,6.2,SW,5.8,-,N/A,,Partly Cloudy,230,2013-04-02 08:00:00
10:30 AM,59.0,53.6,82,29.71,6.2,SW,6.9,-,N/A,,Partly Cloudy,230,2013-04-02 08:30:00
11:00 AM,60.8,51.8,72,29.71,6.2,WSW,9.2,-,N/A,,Partly Cloudy,250,2013-04-02 09:00:00
11:30 AM,64.4,48.2,56,29.71,6.2,NNW,13.8,-,N/A,,Scattered Clouds,330,2013-04-02 09:30:00
12:00 PM,64.4,44.6,49,29.71,6.2,NW,12.7,-,N/A,,Scattered Clouds,320,2013-04-02 10:00:00
12:30 PM,64.4,44.6,49,29.71,6.2,NW,12.7,-,N/A,,Scattered Clouds,320,2013-04-02 10:30:00
1:00 PM,64.4,41.0,42,29.71,6.2,WNW,16.1,-,N/A,,Scattered Clouds,300,2013-04-02 11:00:00
1:30 PM,64.4,42.8,45,29.71,6.2,WNW,13.8,-,N/A,,Scattered Clouds,300,2013-04-02 11:30:00
2:00 PM,64,38,27,29.73,19,WNW,12.7,,,,Partly Cloudy,300,2013-04-02 12:00:00
2:00 PM,64.4,42.8,45,29.71,6.2,WNW,16.1,-,N/A,,Scattered Clouds,300,2013-04-02 12:00:00
2:30 PM,64.4,41.0,42,29.74,6.2,WNW,13.8,-,N/A,,Scattered Clouds,300,2013-04-02 12:30:00
3:00 PM,64.4,41.0,42,29.74,6.2,WNW,13.8,-,N/A,,Scattered Clouds,300,2013-04-02 13:00:00
3:30 PM,66.2,41.0,40,29.74,6.2,WNW,12.7,-,N/A,,Scattered Clouds,300,2013-04-02 13:30:00
4:00 PM,66.2,41.0,40,29.74,6.2,West,13.8,-,N/A,,Scattered Clouds,280,2013-04-02 14:00:00
4:30 PM,66.2,42.8,43,29.74,6.2,WSW,17.3,-,N/A,,Partly Cloudy,250,2013-04-02 14:30:00
5:00 PM,64.4,42.8,45,29.74,6.2,WSW,19.6,-,N/A,,Partly Cloudy,250,2013-04-02 15:00:00
5:30 PM,64.4,42.8,45,29.74,6.2,West,18.4,-,N/A,,Partly Cloudy,260,2013-04-02 15:30:00
6:00 PM,64.4,41.0,42,29.74,6.2,WSW,16.1,-,N/A,,Partly Cloudy,250,2013-04-02 16:00:00
6:30 PM,64.4,44.6,49,29.74,6.2,West,15.0,-,N/A,,Partly Cloudy,260,2013-04-02 16:30:00
7:00 PM,64.4,42.8,45,29.74,6.2,West,13.8,-,N/A,,Partly Cloudy,260,2013-04-02 17:00:00
7:30 PM,62.6,46.4,55,29.74,-9999.0,West,12.7,-,N/A,,Clear,260,2013-04-02 17:30:00
8:00 PM,60,43,42,29.77,19,West,9.2,,,,Scattered Clouds,260,2013-04-02 18:00:00
8:00 PM,60.8,46.4,59,29.77,-9999.0,West,11.5,-,N/A,,Clear,260,2013-04-02 18:00:00
8:30 PM,59.0,48.2,67,29.77,-9999.0,West,10.4,-,N/A,,Clear,260,2013-04-02 18:30:00
9:00 PM,59.0,48.2,67,29.77,-9999.0,West,9.2,-,N/A,,Clear,270,2013-04-02 19:00:00
9:30 PM,59.0,48.2,67,29.77,-9999.0,West,11.5,-,N/A,,Clear,260,2013-04-02 19:30:00
10:00 PM,59.0,50.0,72,29.77,-9999.0,WSW,10.4,-,N/A,,Clear,250,2013-04-02 20:00:00
10:30 PM,57.2,50.0,77,29.80,-9999.0,WSW,3.5,-,N/A,,Clear,250,2013-04-02 20:30:00
11:00 PM,57.2,51.8,82,29.80,-9999.0,Variable,3.5,-,N/A,,Clear,0,2013-04-02 21:00:00
11:30 PM,51.8,46.4,82,29.80,-9999.0,South,3.5,-,N/A,,Clear,170,2013-04-02 21:30:00